www.pogodaiklimat.ru

Погода и климат >> Архив погоды >> Россия >> Краснодарский край >> Имеретинка


ПОГОДА в Имеретинке

  • Прогноз погоды в Имеретинке
  • Монитор погоды в Имеретинке
  • Климат города

АРХИВ ПОГОДЫ в Имеретинке

Время (UTC), дата Ветер
(напр.,м/с)
 
Видим.   Явления Облачность Т
(С)
Тd
(С)
f
(%)
Тe
(С)
Тes
(С)
Комфортность P
(гПа)
Po
(гПа)
Тmin
(С)
Tmax
(С)
R
(мм)
R24
(мм)
S
(см)
00 11.11 С 1 н/о н/о +9.1 +7.1 87 +8 +8 1020.5 1020.4
03 11.11 С 1 н/о н/о +8.2 +6.0 86 +7 +7 1020.4 1020.3 +8.2
06 11.11 С 1 н/о н/о +11.0 +5.9 71 +11 +11 1021.4 1021.3 +8.0
09 11.11 ЮЗ 1 н/о н/о +18.6 +12.8 69 +20 +20 1021.3 1021.2
12 11.11 З 1 н/о н/о +18.2 +10.6 61 +20 +20 1021.0 1020.9
15 11.11 З 1 н/о н/о +15.8 +10.8 72 +17 +17 1021.4 1021.3 +19.0
18 11.11 С 1 н/о н/о +9.8 +9.8 100 +9 +9 1022.1 1022.0
21 11.11 С 1 н/о н/о +9.9 +9.9 100 +9 +9 1023.1 1023.0
00 12.11 С 1 н/о н/о +10.2 +9.7 97 +10 +10 1023.4 1023.3
03 12.11 С 1 н/о н/о +10.5 +9.3 92 +10 +10 1023.5 1023.4 +8.4
06 12.11 С 1 н/о н/о +11.6 +9.7 88 +11 +11 1024.2 1024.1 +8.4
09 12.11 штиль 0 н/о н/о +12.8 +12.8 100 +12 +12 1024.5 1024.4
12 12.11 В 2 н/о н/о +15.1 +13.3 89 +15 +15 1024.0 1023.9
15 12.11 Ю 2 н/о н/о +13.8 +13.2 96 +13 +13 1024.0 1023.9 +15.8 1
18 12.11 С 1 н/о н/о +11.7 +11.7 100 +11 +11 1024.1 1024.0
21 12.11 З 2 н/о н/о +11.9 +11.9 100 +11 +11 1024.5 1024.4
00 13.11 З 1 н/о н/о +10.9 +10.1 95 +10 +10 1025.0 1024.9
03 13.11 С 1 н/о н/о +9.9 +9.9 100 +9 +9 1025.2 1025.1 +9.9 7
06 13.11 штиль 0 н/о н/о +10.1 +10.1 100 +9 +9 1025.0 1024.9 +9.9
09 13.11 З 1 н/о н/о +11.4 +10.3 93 +11 +11 1024.0 1023.9
12 13.11 СЗ 1 н/о н/о +8.6 +8.6 100 +8 +8 1024.5 1024.4
15 13.11 С 1 н/о н/о +7.6 +7.6 100 +6 +6 1025.0 1024.9 +12.9 4
18 13.11 С 1 н/о н/о +7.2 +7.2 100 +6 +6 1024.8 1024.7
21 13.11 С 1 н/о н/о +7.6 +7.6 100 +6 +6 1023.9 1023.8
00 14.11 штиль 0 н/о н/о +7.8 +7.8 100 +7 +7 1022.9 1022.8
03 14.11 штиль 0 н/о н/о +8.0 +8.0 100 +7 +7 1022.1 1022.0 +6.8 2
06 14.11 штиль 0 н/о н/о +8.6 +8.6 100 +8 +8 1021.7 1021.6 +6.8
09 14.11 штиль 0 н/о н/о +11.1 +10.3 95 +10 +10 1020.5 1020.4
12 14.11 штиль 0 н/о н/о +11.1 +10.6 97 +10 +10 1019.0 1018.9
15 14.11 СВ 1 н/о н/о +9.6 +9.6 100 +9 +9 1018.4 1018.3 +11.4 2
18 14.11 С 1 н/о н/о +9.4 +9.4 100 +9 +9 1017.0 1016.9
21 14.11 С 1 н/о н/о +9.3 +9.3 100 +8 +8 1015.1 1015.0
00 15.11 штиль 0 н/о н/о +9.2 +9.2 100 +8 +8 1014.3 1014.2
03 15.11 СВ 1 н/о н/о +9.2 +9.2 100 +8 +8 1014.1 1014.0 +9.0 3
06 15.11 С 1 н/о н/о +9.0 +9.0 100 +8 +8 1014.9 1014.8 +9.0
09 15.11 В 6-10
{13}
н/о н/о +11.8 +8.6 81 +9 +9 1013.7 1013.6
12 15.11 ЮВ 7-15
{15}
н/о н/о +11.4 +8.3 81 +8 +8 1014.8 1014.7
15 15.11 ЮВ 7-12
{15}
н/о н/о +11.5 +8.4 81 +8 +8 1016.1 1016.0 +13.1 7
18 15.11 ЮВ 7-13
{15}
н/о н/о +12.4 +7.7 73 +10 +10 1017.2 1017.1
21 15.11 ЮВ 4
{14}
н/о н/о +11.9 +8.0 77 +10 +10 1018.0 1017.9
00 16.11 штиль 0 н/о н/о +8.4 +8.4 100 +7 +7 1018.3 1018.2
03 16.11 С 1 н/о н/о +8.4 +7.3 93 +8 +8 1017.5 1017.4 +7.9 0.6
06 16.11 С 2 н/о н/о +10.1 +7.7 85 +9 +9 1018.0 1017.9 +7.7
09 16.11 С 1 н/о н/о +11.9 +8.4 79 +12 +12 1018.2 1018.1
12 16.11 З 1 н/о н/о +14.3 +9.3 72 +15 +15 1018.0 1017.9
15 16.11 С 1 н/о н/о +10.1 +10.1 100 +9 +9 1017.6 1017.5 +15.7
18 16.11 С 1 н/о н/о +10.3 +9.5 95 +10 +10 1016.9 1016.8

 

Местоположение метеостанции Имеретинка (Краснодарский край, Россия): широта 43.40 долгота 39.95 высота над уровнем моря 2 м.

В архиве по умолчанию представлена погода в Имеретинке за последнюю неделю. Архивные данные за месяц целиком и за предыдущие месяцы, начиная с января 2011 года, Вы можете получить, выбрав интересующий диапазон дат из раскрывающегося списка и нажав кнопку "Ввод!".


*Определитесь, кто Вы:
робот инопланетянин человек

Внимание! Время в таблицах - всемирное. Для получения местного времени необходимо прибавить поправку, которая в Имеретинке равна 3 ч.

Смотрите также архив погоды в соседних городах и на ближайших метеорологических станциях:

Погода в Сочи аэропорту (Адлер) (Краснодарский край, Россия) (5 км)
Погода в Сочи (Краснодарский край, Россия) (25 км)
Погода в Кепше (Краснодарский край, Россия) (26 км)
Погода в Красной Поляне (Краснодарский край, Россия) (37 км)
Погода в Горная Карусель 1500 (Краснодарский край, Россия) (39 км)
Погода в Горная Карусель 1000 (Краснодарский край, Россия) (39 км)
Погода в Кордоне Лаура (Краснодарский край, Россия) (44 км)
Погода в Солох Ауле (Краснодарский край, Россия) (51 км)
Погода в Кичмае (Краснодарский край, Россия) (60 км)
Погода в Гузерипле (Адыгея, Россия) (68 км)

Пояснения к столбцам:

Ветер - указаны скорость ветра в м/с - средняя за 10 мин, порывы в срок и между сроками (в фигурных скобках) и направление, откуда дует ветер: С - северный, СВ - северо-восточный, В - восточный, ЮВ - юго-восточный, Ю - южный, ЮЗ - юго-западный, З - западный, СЗ - северо-западный.
Видимость - горизонтальная дальность видимости в метрах или километрах. При видимости от 1 до 10 км при отсутствии осадков обычно наблюдается дымка, при ухудшении видимости до 1 км и менее - туман. В сухую погоду видимость может ухудшаться дымом, пылью или мглою.
Явления - указаны атмосферные явления, наблюдавшиеся в срок или в последний час перед сроком; фигурными скобками обозначены явления, наблюдавшиеся между сроками (за 1-3 часа до срока); квадратными скобками обозначены град или гололедные отложения с указанием их диаметра в мм.
Облачность - указаны через наклонную черту общая и нижняя облачность в баллах и высота нижней границы облаков в метрах; квадратными скобками обозначены формы облаков: Ci - перистые, Cs - перисто-слоистые, Cc - перисто-кучевые, Ac - высококучевые, As - высокослоистые, Sc - слоисто-кучевые, Ns - слоисто-дождевые, Cu - кучевые, Cb - кучево-дождевые. Подробнее классификацию облаков см. в Атласе облаков (PDF).
T - Температура воздуха - температура, измеренная на высоте 2 м над землей.
Td - Температура точки росы - температура, при понижении до которой содержащийся в воздухе водяной пар достигнет насыщения.
f - Относительная влажность воздуха - влажноcть воздуха, измеренная на высоте 2 м над землей.
Te - Эффективная температура - температура, которую ощущает одетый по сезону человек в тени. Характеристика душности погоды. При расчете учитывается влияние влажности воздуха и скорости ветра на теплоощущения человека.
Tes - Эффективная температура на солнце - температура, которую ощущает человек, с поправкой на солнечный нагрев. Характеристика знойности погоды. Зависит от высоты солнца над горизонтом, облачности и скорости ветра. Ночью, в пасмурную погоду, а также при ветре 12 м/с и более поправка равна нулю.
P - Атмосферное давление - приведенное к уровню моря атмосферное давление.
Po - Атмосферное давление - измеренное на уровне метеостанции атмосферное давление.
Tmin - Минимальная температура - минимум температуры воздуха на высоте 2 м над землей.
Tmax - Максимальная температура - максимум температуры воздуха на высоте 2 м над землей.
R - Количество осадков - Количество выпавших осадков за период времени, мм. При наведении курсора мыши на число - период времени, за который выпало указанное количество осадков.
R24 - Количество осадков - Количество выпавших осадков за 24 часа, мм.
S - Снежный покров - Высота снежного покрова, см. При наведении курсора мыши на число - состояние снежного покрова и степень покрытия местности в баллах.